Location: Maccacari
(45.1333°N, 11.1333°E)
Time: 18:12:10
(UTC+00:00)

USA 234 - Pass Details

Date: 24 January 2021
Orbit: 1100 x 1107 km, 123.0° (Epoch: 01 March)

Event Time Altitude Azimuth Distance (km) Brightness Sun altitude
Exits shadow 21:04:09 16° 304° (NW) 2,552 5.6 -50.4°
Drops below altitude 10° 21:05:16 10° 306° (NW) 2,965 6.0 -50.6°
Sets 21:07:46 0° 309° (NW) 3,926 6.8 -51.0°
